sat.trackr.live / text

‹ back to catalog

STARLINK-35723

NORAD 66211 · 2025-244F

PAYLOAD ACTIVE UNKNOWN

§ Identity

Operator
Country
US
Launch date
2025-10-28
Launch site
AFWTR
Launch vehicle
Mass (kg)
RCS (m²)

Purposes: comms

External: N2YO · Heavens-Above · Gunter

§ Orbital elements

Epoch: 2026-05-24T17:10:11.571744Z

Period
94.11 min
Inclination
53.1606°
Eccentricity
0.0001274
Mean motion
15.30202005 rev/d
Perigee alt
474.3 km
Apogee alt
476.1 km
Semi-major
6,853.3 km
B*
4.6568e-4
RAAN
236.4805°
Arg perigee
77.9112°
Mean anomaly
282.2032°
Rev number
3,329

§ Raw data

STARLINK-357231 66211U 25244F   26144.71541171  .00013459  00000+0  46568-3 0  99902 66211  53.1606 236.4805 0001274  77.9112 282.2032 15.30202005 33292

JSON: /api/v1/satellites/66211 · /tle

For live sub-satellite position, see the globe view (requires WebGL).

§ Visibility from observer

Set your observer location to see the next 7 days of passes ≥ 10°. The values pass through the URL so the page stays shareable.

No JS? Fill the form by hand. The geolocation button needs JavaScript.